Location: Brachbach
(49.1847°N, 9.7240°E)
Time: 02:15:12
(UTC+00:00)

ARIANE 6 FM1 Upper Stage - Pass Details

Date: 03 February 2026
Orbit: 522 x 609 km, 62.0° (Epoch: 13 February)

Event Time Altitude Azimuth Distance (km) Brightness Sun altitude
Rises 17:35:00 0° 282° (WNW) 2,686 7.5 -12.3°
Reaches altitude 10° 17:37:57 10° 305° (NW) 1,784 5.9 -12.8°
Maximum altitude 17:40:27 16° 344° (NNW) 1,441 4.8 -13.2°
Drops below altitude 10° 17:42:57 10° 24° (NNE) 1,772 4.9 -13.6°
Enters shadow 17:43:16 - 27° (NNE) 1,850 5.0 -13.6°
